Regional Weather Roundup
Issued by NWS Sioux Falls, SD

Home | Current Version | Previous Version | Text Only | Print | Product List | Glossary Off
Versions: 1 2 3 4 5 6 7 8 9 10 11 12 13 14 15 16 17 18 19 20 21 22 23 24 25 26 27 28 29 30 31 32 33 34 35 36 37 38 39 40 41 42 43 44 45 46 47 48 49 50

000
ASUS43 KFSD 030710
RWRFSD

WEATHER ROUNDUP FOR SE SOUTH DAKOTA/SW MINNESOTA/NW IOWA
NATIONAL WEATHER SERVICE SIOUX FALLS SD
200 AM CDT WED JUN 03 2015

NOTE: "FAIR" INDICATES FEW OR NO CLOUDS BELOW 12,000 FEET WITH NO
SIGNIFICANT WEATHER AND OR OBSTRUCTIONS TO VISIBILITY.


SDZ038>040-050-052>070-030800-
SOUTHEAST SOUTH DAKOTA

CITY           SKY/WX    TMP DP  RH WIND       PRES   REMARKS
BROOKINGS      CLOUDY    66  59  77 S21       29.82S
CHAMBERLAIN    LGT RAIN  64  58  82 NW10G17   29.84R
HURON          CLOUDY    71  63  75 S14       29.76S
MADISON        FAIR      64  64 100 S16       29.82R
MITCHELL       CLOUDY    70  61  73 SW10G21   29.78F
SIOUX FALLS    CLOUDY    65  59  81 S12       29.83S
WINNER         FAIR      69  55  60 N22G28    29.77F
YANKTON        CLOUDY    66  61  82 SW13      29.84R
$$

MNZ071-072-080-081-089-090-097-098-030800-
SOUTHWEST MINNESOTA

CITY           SKY/WX    TMP DP  RH WIND       PRES   REMARKS
FAIRMONT       PTCLDY    63  52  67 S15       29.88F
JACKSON        PTCLDY    63  55  77 S16       29.89S
LUVERNE        MOCLDY    64  57  77 S12       29.85F
MARSHALL       MOCLDY    66  55  68 S17G23    29.79S
MONTEVIDEO     MOCLDY    66  57  72 SW13G18   29.78F
PIPESTONE      MOCLDY    64  57  77 S17       29.82F
REDWOOD FALLS  MOCLDY    65  56  72 S15       29.81F
TRACY          MOCLDY    66  57  72 S20G25    29.81S
WINDOM         PTCLDY    64  55  72 S15G21    29.85F
WORTHINGTON    MOCLDY    63  54  72 S18G24    29.86S
$$

IAZ001>003-012>014-020>022-031-032-NEZ013-014-SDZ071-030800-
NORTHWEST IOWA

CITY           SKY/WX    TMP DP  RH WIND       PRES   REMARKS
CHEROKEE       PTCLDY    61  57  87 S8        29.88F
DENISON        CLOUDY    63  61  94 S13       29.89S
ESTHERVILLE    PTCLDY    62  55  77 S17       29.88F
LE MARS        PTCLDY    64  59  82 S14G20    29.87S
ORANGE CITY    PTCLDY    61  55  82 S12       29.87S
SHELDON        PTCLDY    63  61  94 S15G21    29.86S
SIOUX CITY     MOCLDY    64  57  78 SE12      29.86F
SPENCER        MOCLDY    64  57  78 S14       29.89F
STORM LAKE     MOCLDY    61  57  88 S14G21    29.90F
$$

ABBREVIATIONS USED IN REMARKS
   TC - TEMPERATURE IN CELSIUS
  WCI - WIND CHILL INDEX
   HX - HEAT INDEX
  VSB - VISIBILITY




USA.gov is the U.S. government's official web portal to all federal, state and local government web resources and services.